Location: Hebron
(33.0265°N, 96.8636°W)
Time: 14:14:56
(UTC+00:00)

Cosmos 1812 - Visible Passes

Search period start: 03 July 2022 00:00
Search period end: 13 July 2022 00:00
Orbit: 511 x 514 km, 82.5° (Epoch: 03 July)

Date Brightness Start Highest point End Pass type
(mag) Time Alt. Az. Time Alt. Az. Time Alt. Az.
03 Jul 5.0 08:08:33 10° NNW 08:09:47 19° NNW 08:09:47 19° NNW visible
04 Jul 5.2 07:52:29 10° N 07:53:38 19° N 07:53:38 19° N visible
05 Jul 5.4 07:36:28 10° N 07:37:30 18° N 07:37:30 18° N visible
06 Jul 5.6 07:20:28 10° N 07:21:22 16° N 07:21:22 16° N visible
07 Jul 5.7 07:04:31 10° N 07:05:14 15° NNE 07:05:14 15° NNE visible
08 Jul 5.8 06:48:37 10° NNE 06:49:08 13° NNE 06:49:08 13° NNE visible
09 Jul 5.9 06:32:47 10° NNE 06:33:02 11° NNE 06:33:02 11° NNE visible
